[[{"header":{"parameterUnit":"m.s-1","parameterCategory":1,"la1":30.2991,"la2":30.254,"lo1":-89.0895,"lo2":-89.0444,"dy":0.0017,"dx":0.0017,"nx":28,"ny":28,"refTime":"2024-02-09T03:00:00:Z","depth":0,"parameterNumber":2,"parameterNumberName":"U-component_of_WINDS"},"data":[0,0,0,0,0,0,0,0,0,0,0,0,0,0,0,0,0,0,0,0,0,0,0,0,0,0,0,0,0,0,0,0,0,0,0,0,0,0,0,0,0,0,0,0,0,0,0,0,0,0,0,0,0,0,0,0,0,0,-2.3983,-2.3983,0,-2.4001,-2.4001,-2.4002,-2.3991,-2.3991,-2.399,-2.399,-2.4007,-2.4008,-2.4009,0,0,0,0,0,0,0,0,0,0,0,0,0,-2.3938,-2.3939,-2.3983,-2.3983,-2.3984,-2.4001,-2.4001,-2.4002,-2.3992,-2.3991,-2.399,-2.399,-2.4007,-2.4008,-2.4009,0,0,0,0,0,0,0,0,0,0,0,0,0,-2.3957,-2.394,-2.3983,-2.3981,-2.3981,-2.4001,-2.4001,-2.4002,-2.3992,-2.3991,-2.399,-2.3989,-2.4007,-2.4008,-2.4009,-2.4033,0,0,-2.4014,-2.4014,0,0,0,0,0,0,0,0,-2.3956,-2.3959,-2.3981,-2.3981,-2.3981,-2.3993,-2.3992,-2.4012,-2.3992,-2.3987,-2.399,-2.3989,-2.4003,-2.4005,-2.401,-2.4034,-2.4034,-2.4014,-2.4015,-2.4015,-2.4016,0,0,0,0,0,0,0,-2.3955,-2.3958,-2.399,-2.3981,-2.3981,-2.3978,-2.398,-2.3996,-2.3999,-2.3988,-2.3987,-2.3989,-2.4003,-2.4009,-2.401,-2.4035,-2.4014,-2.4015,-2.4016,-2.4016,-2.4078,-2.4079,0,0,0,0,0,0,-2.3954,-2.3957,-2.399,-2.3991,-2.3967,-2.398,-2.3982,-2.399,-2.3999,-2.4,-2.399,-2.3989,-2.4007,-2.4009,-2.4011,-2.4038,-2.4015,-2.4016,-2.4017,-2.4077,-2.4078,-2.4079,0,0,0,0,0,0,-2.3953,-2.3957,-2.3989,-2.3974,-2.3978,-2.3981,-2.3991,-2.3991,-2.3996,-2.4001,-2.4001,-2.3995,-2.4006,-2.4009,-2.4027,-2.4039,-2.4017,-2.4018,-2.4076,-2.4077,-2.4078,-2.4094,0,0,0,0,0,0,-2.3952,-2.3957,-2.3966,-2.3974,-2.3979,-2.4006,-2.3991,-2.3992,-2.3999,-2.3997,-2.4006,-2.4006,-2.4006,-2.4025,-2.4029,-2.404,-2.4019,-2.4075,-2.4077,-2.4078,-2.4092,-2.4095,-2.4098,0,0,0,0,0,-2.395,-2.397,-2.3967,-2.3971,-2.399,-2.4007,-2.4009,-2.4008,-2.4,-2.4009,-2.4012,-2.4006,-2.4037,-2.4027,-2.4031,-2.4043,-2.4074,-2.4076,-2.4078,-2.4091,-2.4094,-2.4098,0,0,0,0,0,0,-2.3963,-2.3971,-2.3967,-2.399,-2.3998,-2.4005,-2.4016,-2.4012,-2.4022,-2.402,-2.4019,-2.4021,-2.404,-2.4043,-2.4032,-2.4066,-2.4054,-2.4057,-2.4063,-2.4066,-2.4069,-2.4068,-2.4021,0,0,0,0,0,-2.3968,-2.3981,-2.3987,-2.4006,-2.401,-2.4013,-2.402,-2.4018,-2.4026,-2.4029,-2.4033,-2.4041,-2.4052,-2.4059,-2.407,-2.4093,-2.4094,-2.4103,-2.4105,-2.4108,-2.411,-2.4121,-2.4125,-2.4085,-2.4085,-2.4085,0,0,-2.3979,-2.3985,-2.3993,-2.4009,-2.4015,-2.4027,-2.4015,-2.403,-2.4039,-2.4031,-2.4049,-2.4052,-2.406,-2.4081,-2.409,-2.4084,-2.4121,-2.411,-2.4112,-2.4113,-2.4123,-2.4127,-2.4131,-2.4086,-2.4086,-2.4085,0,0,-2.4006,-2.4012,-2.4028,-2.4035,-2.4043,-2.4045,-2.4049,-2.4056,-2.4058,-2.4076,-2.407,-2.4081,-2.4101,-2.4107,-2.4112,-2.414,-2.4135,-2.4144,-2.4159,-2.417,-2.4173,-2.4175,-2.4185,-2.4188,-2.4146,-2.4146,-2.4146,0,-2.4018,-2.4038,-2.4037,-2.4052,-2.4058,-2.4052,-2.4068,-2.4074,-2.4086,-2.4091,-2.4084,-2.4108,-2.4113,-2.4135,-2.4141,-2.4146,-2.415,-2.4143,-2.4172,-2.4175,-2.4178,-2.4187,-2.419,-2.4147,-2.4147,-2.4147,-2.4147,0,-2.4053,-2.4066,-2.4078,-2.409,-2.4098,-2.4113,-2.4114,-2.4122,-2.412,-2.4122,-2.414,-2.4146,-2.4157,-2.4162,-2.416,-2.4183,-2.4179,-2.4173,-2.4161,-2.4183,-2.4191,-2.4194,-2.4148,-2.4148,-2.4148,-2.4148,0,0,-2.4087,-2.4098,-2.4103,-2.4108,-2.4117,-2.4127,-2.4142,-2.4153,-2.416,-2.4168,-2.418,-2.4196,-2.419,-2.4197,-2.4195,-2.4205,-2.4226,-2.4197,-2.4197,-2.4202,-2.425,-2.4254,-2.4258,-2.4223,-2.4224,-2.4224,-2.4249,0,-2.4114,-2.414,-2.414,-2.4163,-2.4175,-2.417,-2.4182,-2.4189,-2.4191,-2.4201,-2.4203,-2.4215,-2.4206,-2.421,-2.4219,-2.4222,-2.4236,-2.422,-2.4233,-2.4233,-2.423,-2.4263,-2.4268,-2.4291,-2.4253,-2.4253,-2.4254,0,-2.4149,-2.4158,-2.4183,-2.419,-2.4195,-2.4206,-2.4216,-2.4226,-2.4234,-2.4234,-2.4241,-2.4238,-2.4252,-2.4241,-2.426,-2.4249,-2.4254,-2.4256,-2.4257,-2.4258,-2.4244,-2.4264,-2.4299,-2.4302,-2.4259,-2.4258,-2.4258,0,-2.417,-2.4189,-2.4207,-2.4211,-2.422,-2.4228,-2.4232,-2.4238,-2.4245,-2.4254,-2.4258,-2.4268,-2.4273,-2.4281,-2.4281,-2.4272,-2.43,-2.4288,-2.43,-2.43,-2.4305,-2.4305,-2.4341,-2.431,-2.431,-2.431,-2.431,0,-2.42,-2.4215,-2.4216,-2.4227,-2.4244,-2.4243,-2.4259,-2.4262,-2.4268,-2.4279,-2.4275,-2.4284,-2.4284,-2.4293,-2.4293,-2.4308,-2.4311,-2.4312,-2.4311,-2.4311,-2.4311,-2.4314,-2.4312,-2.4311,-2.4311,-2.4311,-2.431,0,-2.4227,-2.4228,-2.4247,-2.4253,-2.4255,-2.4267,-2.4273,-2.4282,-2.4284,-2.4297,-2.43,-2.4303,-2.4314,-2.4315,-2.4328,-2.4327,-2.4346,-2.4344,-2.4343,-2.4343,-2.4354,-2.4353,-2.4393,-2.4398,-2.4364,-2.4365,-2.4365,0,-2.4245,-2.4256,-2.4264,-2.4271,-2.4276,-2.4287,-2.4294,-2.4293,-2.43,-2.4309,-2.4317,-2.4328,-2.4337,-2.4355,-2.4358,-2.4367,-2.4365,-2.4379,-2.4367,-2.4366,-2.4364,-2.4363,-2.4364,-2.4381,-2.4381,-2.4381,-2.4382,0,-2.4277,-2.4277,-2.4287,-2.4297,-2.4305,-2.4313,-2.4321,-2.4327,-2.4327,-2.4335,-2.4347,-2.4353,-2.4367,-2.4377,-2.4386,-2.439,-2.4386,-2.4386,-2.4389,-2.4389,-2.4388,-2.4387,-2.4349,-2.4384,-2.4384,-2.4384,-2.4384,-2.4384,-2.4299,-2.4309,-2.4316,-2.4327,-2.4333,-2.434,-2.4349,-2.4352,-2.4361,-2.4372,-2.4371,-2.4384,-2.439,-2.4402,-2.4406,-2.4416,-2.4411,-2.4416,-2.4417,-2.4418,-2.4419,-2.4387,-2.4418,-2.4418,-2.4418,-2.4417,-2.4417,0,-2.433,-2.4334,-2.4344,-2.4355,-2.4364,-2.4359,-2.4367,-2.4375,-2.4386,-2.4392,-2.4401,-2.4414,-2.4424,-2.4427,-2.4437,-2.4444,-2.4442,-2.4446,-2.4445,-2.4446,-2.4423,-2.4419,-2.4447,-2.4447,-2.4447,-2.4447,-2.4447,-2.4447,-2.4347,-2.4363,-2.4364,-2.4382,-2.4386,-2.4399,-2.4404,-2.441,-2.4415,-2.4429,-2.4438,-2.444,-2.4445,-2.4455,-2.4464,-2.4465,-2.4468,-2.4473,-2.4473,-2.4451,-2.4448,-2.4445,-2.4441,-2.4474,-2.4474,-2.4495,-2.4495,-2.4495]},{"header":{"parameterUnit":"m.s-1","parameterCategory":1,"la1":30.2991,"la2":30.254,"lo1":-89.0895,"lo2":-89.0444,"dy":0.0017,"dx":0.0017,"nx":28,"ny":28,"refTime":"2024-02-09T03:00:00:Z","depth":0,"parameterNumber":3,"parameterNumberName":"V-component_of_WINDS"},"data":[0,0,0,0,0,0,0,0,0,0,0,0,0,0,0,0,0,0,0,0,0,0,0,0,0,0,0,0,0,0,0,0,0,0,0,0,0,0,0,0,0,0,0,0,0,0,0,0,0,0,0,0,0,0,0,0,0,0,0.739,0.739,0,0.7393,0.7393,0.7393,0.7435,0.7436,0.7437,0.7438,0.7441,0.744,0.7439,0,0,0,0,0,0,0,0,0,0,0,0,0,0.7424,0.7423,0.739,0.739,0.739,0.7393,0.7393,0.7393,0.7435,0.7436,0.7438,0.7439,0.7441,0.744,0.7439,0,0,0,0,0,0,0,0,0,0,0,0,0,0.7416,0.7422,0.739,0.7412,0.7414,0.7393,0.7393,0.7393,0.7435,0.7436,0.7438,0.7439,0.7441,0.744,0.7439,0.7398,0,0,0.7434,0.7434,0,0,0,0,0,0,0,0,0.7416,0.7415,0.7408,0.741,0.7412,0.7415,0.7406,0.7394,0.7434,0.7427,0.7438,0.744,0.7431,0.743,0.7427,0.7398,0.7398,0.7434,0.7433,0.7433,0.7432,0,0,0,0,0,0,0,0.7417,0.7415,0.7391,0.7408,0.7411,0.7422,0.7422,0.7404,0.742,0.7427,0.743,0.743,0.7432,0.7429,0.7428,0.7398,0.7434,0.7433,0.7432,0.7431,0.7338,0.7337,0,0,0,0,0,0,0.7414,0.7415,0.7391,0.7391,0.7418,0.742,0.7421,0.7413,0.742,0.7423,0.7429,0.7432,0.743,0.7429,0.7428,0.7383,0.7433,0.7431,0.7431,0.734,0.7338,0.7336,0,0,0,0,0,0,0.7415,0.7412,0.7391,0.7404,0.7402,0.7418,0.7408,0.7412,0.7408,0.7421,0.7424,0.7422,0.7431,0.743,0.7406,0.7383,0.7431,0.7429,0.7342,0.7339,0.7337,0.729,0,0,0,0,0,0,0.7416,0.7412,0.7395,0.7403,0.7401,0.7368,0.7407,0.7411,0.7406,0.741,0.7416,0.7418,0.7433,0.7408,0.7404,0.7382,0.7428,0.7344,0.7341,0.7338,0.7293,0.7286,0.728,0,0,0,0,0,0.7417,0.7381,0.7394,0.7391,0.7381,0.7366,0.7365,0.7383,0.7404,0.7388,0.7397,0.7418,0.7386,0.7405,0.7401,0.7378,0.7346,0.7342,0.7338,0.7296,0.7287,0.728,0,0,0,0,0,0,0.7369,0.7382,0.7397,0.7363,0.7363,0.7373,0.7354,0.7372,0.7366,0.7371,0.7393,0.7394,0.7367,0.737,0.739,0.7341,0.737,0.7365,0.7339,0.7331,0.7324,0.7324,0.7427,0,0,0,0,0,0.7354,0.7341,0.7354,0.7322,0.7322,0.7338,0.7332,0.7346,0.7347,0.7347,0.7354,0.7355,0.7345,0.7338,0.733,0.7295,0.7298,0.7278,0.7271,0.7265,0.7261,0.7245,0.7237,0.7324,0.7324,0.7324,0,0,0.7324,0.733,0.732,0.7313,0.7315,0.7301,0.7338,0.7321,0.7311,0.7345,0.7322,0.7328,0.733,0.7301,0.7288,0.7303,0.7238,0.726,0.7256,0.7255,0.7241,0.7232,0.7225,0.7322,0.7322,0.7323,0,0,0.7262,0.7265,0.724,0.7242,0.7245,0.7257,0.7251,0.7259,0.7264,0.7243,0.7269,0.7258,0.7241,0.7242,0.724,0.7184,0.7203,0.718,0.7144,0.7129,0.7122,0.7116,0.7097,0.709,0.7176,0.7176,0.7176,0,0.7224,0.7204,0.7225,0.7208,0.7205,0.7236,0.7213,0.7213,0.7213,0.7211,0.7228,0.7209,0.7213,0.7185,0.7172,0.7169,0.7165,0.7179,0.7121,0.7115,0.711,0.7093,0.7085,0.7173,0.7174,0.7174,0.7174,0,0.7158,0.7144,0.7124,0.7125,0.712,0.7099,0.7119,0.7111,0.7127,0.7137,0.7116,0.7122,0.7117,0.7112,0.7126,0.7088,0.7097,0.7117,0.7147,0.7099,0.7083,0.7076,0.717,0.7171,0.7171,0.7172,0,0,0.7064,0.7079,0.7071,0.7073,0.7081,0.7071,0.7053,0.7049,0.7043,0.7043,0.7029,0.7016,0.7036,0.7034,0.7049,0.7035,0.6993,0.7058,0.7058,0.7046,0.6953,0.6938,0.693,0.7006,0.7005,0.7004,0.6953,0,0.7005,0.6975,0.6995,0.6962,0.6951,0.6982,0.6967,0.6971,0.6981,0.6973,0.6985,0.6975,0.7001,0.7001,0.6989,0.7,0.6974,0.7004,0.6995,0.6994,0.6993,0.6921,0.6904,0.6856,0.6947,0.6946,0.6945,0,0.6932,0.693,0.6896,0.6909,0.6905,0.6891,0.6891,0.6883,0.6889,0.6897,0.6897,0.6917,0.6902,0.6932,0.6912,0.6932,0.693,0.6936,0.6934,0.6934,0.6966,0.6919,0.684,0.6833,0.6935,0.6936,0.6937,0,0.6868,0.6857,0.6836,0.6837,0.6851,0.6841,0.6846,0.6854,0.6851,0.6851,0.685,0.6848,0.6847,0.6845,0.6865,0.6885,0.6844,0.6875,0.6852,0.6851,0.6841,0.6841,0.6761,0.6839,0.6839,0.6839,0.6839,0,0.68,0.6778,0.6808,0.6795,0.6773,0.6797,0.6775,0.6784,0.6791,0.6781,0.6808,0.6799,0.6825,0.6819,0.6835,0.6818,0.6817,0.6824,0.6828,0.6822,0.6821,0.682,0.6824,0.6837,0.6838,0.6838,0.6838,0,0.6724,0.6743,0.6723,0.6739,0.6743,0.6725,0.674,0.6729,0.6742,0.673,0.6729,0.6749,0.6744,0.6764,0.6761,0.6772,0.6747,0.6757,0.6745,0.6748,0.6724,0.6726,0.6641,0.6632,0.6715,0.6714,0.6713,0,0.668,0.6664,0.6679,0.6675,0.668,0.6672,0.6671,0.6695,0.6692,0.67,0.6689,0.6686,0.6685,0.6675,0.669,0.6689,0.67,0.667,0.6699,0.6694,0.67,0.6701,0.6701,0.6663,0.6662,0.6662,0.6661,0,0.6599,0.6611,0.6607,0.6607,0.6605,0.6606,0.6609,0.6604,0.6631,0.6627,0.6622,0.6621,0.662,0.6617,0.662,0.6627,0.6649,0.6652,0.6647,0.6639,0.6634,0.6638,0.6728,0.6653,0.6654,0.6655,0.6655,0.6655,0.6539,0.6527,0.6537,0.6533,0.6538,0.6542,0.6533,0.6547,0.6543,0.6544,0.656,0.6552,0.6562,0.6568,0.6573,0.6569,0.6583,0.6575,0.6573,0.6571,0.6567,0.6635,0.657,0.657,0.657,0.657,0.6571,0,0.6461,0.6469,0.6465,0.647,0.6467,0.6489,0.6495,0.6491,0.6485,0.6492,0.6491,0.6487,0.6486,0.6502,0.6503,0.6497,0.6507,0.6496,0.6497,0.6499,0.6554,0.6559,0.6488,0.6488,0.6488,0.6488,0.6488,0.6488,0.642,0.6403,0.6415,0.6402,0.6411,0.6405,0.6406,0.641,0.6416,0.6411,0.641,0.6421,0.6433,0.6436,0.6436,0.6441,0.644,0.6426,0.6435,0.6486,0.6494,0.6502,0.6507,0.6426,0.6426,0.638,0.638,0.6379]}]]